timestamp,surface_pressure_avg,surface_temp_avg,battery_voltage,lat,long
2021-11-10 00:09:01+00:00,253.9899,9.7,12.65,47.84626,-54.09684
2021-11-10 00:19:00+00:00,257.4015,9.7,12.65,47.84626,-54.09684
2021-11-10 00:29:00+00:00,265.9981,9.7,12.65,47.84626,-54.09684
2021-11-10 00:39:00+00:00,268.3281,9.7,12.65,47.84626,-54.09684
2021-11-10 00:49:00+00:00,271.7431,9.7,12.65,47.84626,-54.09684
2021-11-10 00:59:00+00:00,276.7264,9.7,12.65,47.84626,-54.09684
2021-11-10 01:09:00+00:00,281.9331,9.7,12.65,47.84626,-54.09684
2021-11-10 01:19:01+00:00,287.6714,9.7,12.65,47.84626,-54.09684
2021-11-10 01:29:01+00:00,301.4047,9.7,12.65,47.84626,-54.09684
2021-11-10 01:39:01+00:00,311.973,9.7,12.65,47.84626,-54.09684
2021-11-10 01:49:01+00:00,315.58799999999997,9.74,12.65,47.84626,-54.09684
2021-11-10 01:59:01+00:00,316.7914,9.76,12.65,47.84626,-54.09684
2021-11-10 02:09:01+00:00,324.6713,9.76,12.65,47.84626,-54.09684
2021-11-10 02:19:00+00:00,329.298,9.76,12.57,47.84626,-54.09684
2021-11-10 02:29:00+00:00,330.2596,9.76,12.57,47.84626,-54.09684
2021-11-10 02:39:00+00:00,332.9146,9.77,12.57,47.84626,-54.09684
2021-11-10 02:49:00+00:00,335.8731,9.78,12.57,47.84626,-54.09684
2021-11-10 02:59:00+00:00,334.3996,9.78,12.57,47.84626,-54.09684
2021-11-10 03:09:00+00:00,336.0996,9.76,12.57,47.84626,-54.09684
2021-11-10 03:19:01+00:00,335.5246,9.75,12.57,47.84626,-54.09684
2021-11-10 03:29:01+00:00,330.1263,9.76,12.57,47.84626,-54.09684
2021-11-10 03:39:01+00:00,326.7164,9.74,12.57,47.84626,-54.09684
2021-11-10 03:49:01+00:00,334.1996,9.73,12.57,47.84626,-54.09684
2021-11-10 03:59:01+00:00,336.218,9.73,12.57,47.84626,-54.09684
2021-11-10 04:09:01+00:00,331.5080000000001,9.74,12.57,47.84626,-54.09684
2021-11-10 04:19:00+00:00,335.3914,9.7,12.57,47.84626,-54.09684
2021-11-10 04:29:00+00:00,342.8179,9.71,12.57,47.84626,-54.09684
2021-11-10 04:39:00+00:00,345.5396,9.71,12.57,47.84626,-54.09684
2021-11-10 04:49:00+00:00,342.3846,9.72,12.57,47.84626,-54.09684
2021-11-10 04:59:00+00:00,342.3829,9.73,12.57,47.84626,-54.09684
2021-11-10 05:09:00+00:00,342.9495,9.73,12.57,47.84626,-54.09684
2021-11-10 05:19:00+00:00,335.5863,9.75,12.57,47.84626,-54.09684
2021-11-10 05:29:00+00:00,329.5846,9.74,12.57,47.84626,-54.09684
2021-11-10 05:39:00+00:00,327.2096,9.71,12.57,47.84626,-54.09684
2021-11-10 05:49:00+00:00,323.6546,9.72,12.57,47.84626,-54.09684
2021-11-10 05:59:00+00:00,311.9564,9.75,12.57,47.84626,-54.09684
2021-11-10 06:09:00+00:00,305.158,9.75,12.57,47.84626,-54.09684
2021-11-10 06:19:00+00:00,303.1381,9.76,12.57,47.84626,-54.09684
2021-11-10 06:29:00+00:00,293.6764,9.77,12.57,47.84626,-54.09684
2021-11-10 06:39:00+00:00,281.8713,9.76,12.57,47.84626,-54.09684
2021-11-10 06:49:00+00:00,273.0364,9.75,12.57,47.84626,-54.09684
2021-11-10 06:59:00+00:00,261.4581,9.77,12.57,47.84626,-54.09684
2021-11-10 07:09:00+00:00,249.2581,9.78,12.57,47.84626,-54.09684
2021-11-10 07:19:00+00:00,240.0897,9.79,12.57,47.84626,-54.09684
2021-11-10 07:29:00+00:00,232.6631,9.8,12.57,47.84626,-54.09684
2021-11-10 07:39:00+00:00,224.8698,9.8,12.57,47.84626,-54.09684
2021-11-10 07:49:00+00:00,218.1698,9.8,12.57,47.84626,-54.09684
2021-11-10 07:59:00+00:00,213.5131,9.8,12.57,47.84626,-54.09684
2021-11-10 08:09:00+00:00,210.0431,9.8,12.57,47.84626,-54.09684
2021-11-10 08:19:00+00:00,208.9381,9.8,12.57,47.84626,-54.09684
2021-11-10 08:29:00+00:00,208.8881,9.8,12.57,47.84626,-54.09684
2021-11-10 08:39:00+00:00,204.7265,9.8,12.57,47.84626,-54.09684
2021-11-10 08:49:00+00:00,201.0831,9.8,12.57,47.84626,-54.09684
2021-11-10 08:59:00+00:00,203.5431,9.8,12.57,47.84626,-54.09684
2021-11-10 09:09:00+00:00,206.3131,9.8,12.57,47.84626,-54.09684
2021-11-10 09:19:00+00:00,207.9898,9.8,12.49,47.84626,-54.09684
2021-11-10 09:29:00+00:00,209.9265,9.8,12.49,47.84626,-54.09684
2021-11-10 09:39:00+00:00,212.8648,9.8,12.49,47.84626,-54.09684
2021-11-10 09:49:00+00:00,216.4365,9.8,12.49,47.84626,-54.09684
2021-11-10 09:59:00+00:00,217.0214,9.8,12.49,47.84626,-54.09684
2021-11-10 10:09:00+00:00,220.5164,9.8,12.49,47.84626,-54.09684
2021-11-10 10:19:00+00:00,226.2481,9.8,12.49,47.84626,-54.09684
2021-11-10 10:29:00+00:00,225.7798,9.8,12.49,47.84626,-54.09684
2021-11-10 10:39:00+00:00,226.6581,9.8,12.49,47.84626,-54.09684
2021-11-10 10:49:00+00:00,235.3881,9.8,12.49,47.84626,-54.09684
2021-11-10 10:59:00+00:00,239.0048,9.8,12.49,47.84626,-54.09684
2021-11-10 11:09:00+00:00,232.6447,9.8,12.49,47.84626,-54.09684
2021-11-10 11:19:00+00:00,237.6814,9.8,13.44,47.84626,-54.09684
2021-11-10 11:29:00+00:00,246.4313,9.8,13.44,47.84626,-54.09684
2021-11-10 11:39:00+00:00,242.8114,9.8,13.44,47.84626,-54.09684
2021-11-10 11:49:00+00:00,241.2564,9.8,13.44,47.84626,-54.09684
2021-11-10 11:59:00+00:00,250.088,9.79,13.44,47.84626,-54.09684
2021-11-10 12:09:00+00:00,251.9931,9.79,13.44,47.84626,-54.09684
2021-11-10 12:19:00+00:00,249.6381,9.79,14.32,47.84626,-54.09684
2021-11-10 12:29:00+00:00,254.5414,9.78,14.32,47.84626,-54.09684
2021-11-10 12:39:00+00:00,264.6281,9.78,14.32,47.84626,-54.09684
2021-11-10 12:49:00+00:00,265.9164,9.77,14.32,47.84626,-54.09684
2021-11-10 12:59:00+00:00,267.2681,9.78,14.32,47.84626,-54.09684
2021-11-10 13:09:00+00:00,277.20799999999997,9.78,14.32,47.84626,-54.09684
2021-11-10 13:19:00+00:00,285.493,9.76,14.64,47.84626,-54.09684
2021-11-10 13:29:00+00:00,287.3064,9.7,14.64,47.84626,-54.09684
2021-11-10 13:39:00+00:00,296.0097,9.7,14.64,47.84626,-54.09684
2021-11-10 13:49:00+00:00,309.0347,9.7,14.64,47.84626,-54.09684
2021-11-10 13:59:00+00:00,316.8713,9.7,14.64,47.84626,-54.09684
2021-11-10 14:09:00+00:00,323.0913,9.7,14.64,47.84626,-54.09684
2021-11-10 14:19:00+00:00,335.1263,9.7,14.16,47.84626,-54.09684
2021-11-10 14:29:00+00:00,341.0013,9.7,14.16,47.84626,-54.09684
2021-11-10 14:39:00+00:00,340.898,9.7,14.16,47.84626,-54.09684
2021-11-10 14:49:00+00:00,343.7647,9.7,14.16,47.84626,-54.09684
2021-11-10 14:59:00+00:00,350.3196,9.7,14.16,47.84626,-54.09684
2021-11-10 15:09:00+00:00,352.9146,9.7,14.16,47.84626,-54.09684
2021-11-10 15:19:00+00:00,352.6113,9.7,14.24,47.84626,-54.09684
2021-11-10 15:29:00+00:00,351.57300000000015,9.7,14.24,47.84626,-54.09684
2021-11-10 15:39:00+00:00,357.2979,9.7,14.24,47.84626,-54.09684
2021-11-10 15:49:00+00:00,360.7513,9.7,14.24,47.84626,-54.09684
2021-11-10 15:59:00+00:00,357.9846,9.7,14.24,47.84626,-54.09684
2021-11-10 16:09:00+00:00,361.9064,9.7,14.24,47.84626,-54.09684
2021-11-10 16:19:00+00:00,368.2762,9.69,14.08,47.84626,-54.09684
2021-11-10 16:29:00+00:00,370.4562,9.68,14.08,47.84626,-54.09684
2021-11-10 16:39:00+00:00,370.2729,9.67,14.08,47.84626,-54.09684
2021-11-10 16:49:00+00:00,371.4295,9.67,14.08,47.84626,-54.09684
2021-11-10 16:59:00+00:00,371.4963,9.67,14.08,47.84626,-54.09684
2021-11-10 17:09:00+00:00,365.4029,9.68,14.08,47.84626,-54.09684
2021-11-10 17:19:00+00:00,362.6978,9.7,14.0,47.84626,-54.09684
2021-11-10 17:29:00+00:00,362.4578,9.7,14.0,47.84626,-54.09684
2021-11-10 17:39:00+00:00,357.3695,9.7,14.0,47.84626,-54.09684
2021-11-10 17:49:00+00:00,350.9346,9.7,14.0,47.84626,-54.09684
2021-11-10 17:59:00+00:00,348.0181,9.7,14.0,47.84626,-54.09684
2021-11-10 18:09:00+00:00,347.0996,9.7,14.0,47.84626,-54.09684
2021-11-10 18:19:00+00:00,332.8913,9.7,13.92,47.84626,-54.09684
2021-11-10 18:29:00+00:00,320.3314,9.7,13.92,47.84626,-54.09684
2021-11-10 18:39:00+00:00,316.6913,9.7,13.92,47.84626,-54.09684
2021-11-10 18:49:00+00:00,304.6113,9.69,13.92,47.84626,-54.09684
2021-11-10 18:59:00+00:00,290.278,9.68,13.92,47.84626,-54.09684
2021-11-10 19:09:00+00:00,287.1813,9.68,13.92,47.84626,-54.09684
2021-11-10 19:19:00+00:00,282.868,9.67,13.68,47.84626,-54.09684
2021-11-10 19:29:00+00:00,265.7814,9.65,13.68,47.84626,-54.09684
2021-11-10 19:39:00+00:00,259.1764,9.65,13.68,47.84626,-54.09684
2021-11-10 19:49:00+00:00,263.2963,9.66,13.68,47.84626,-54.09684
2021-11-10 19:59:00+00:00,257.318,9.66,13.68,47.84626,-54.09684
2021-11-10 20:09:00+00:00,243.5931,9.66,13.68,47.84626,-54.09684
2021-11-10 20:19:00+00:00,244.6664,9.67,13.29,47.84626,-54.09684
2021-11-10 20:29:00+00:00,246.4264,9.68,13.29,47.84626,-54.09684
2021-11-10 20:39:00+00:00,237.0414,9.69,13.29,47.84626,-54.09684
2021-11-10 20:49:00+00:00,230.2498,9.69,13.29,47.84626,-54.09684
2021-11-10 20:59:00+00:00,236.0414,9.69,13.29,47.84626,-54.09684
2021-11-10 21:09:00+00:00,237.1281,9.69,13.29,47.84626,-54.09684
2021-11-10 21:19:00+00:00,231.2464,9.69,12.89,47.84626,-54.09684
2021-11-10 21:29:00+00:00,231.6231,9.69,12.89,47.84626,-54.09684
2021-11-10 21:39:00+00:00,237.1981,9.67,12.89,47.84626,-54.09684
2021-11-10 21:49:00+00:00,240.7181,9.64,12.89,47.84626,-54.09684
2021-11-10 21:59:00+00:00,240.9548,9.62,12.89,47.84626,-54.09684
2021-11-10 22:09:00+00:00,239.6398,9.61,12.89,47.84626,-54.09684
2021-11-10 22:19:00+00:00,241.6597,9.6,12.65,47.84626,-54.09684
2021-11-10 22:29:00+00:00,244.2248,9.61,12.65,47.84626,-54.09684
2021-11-10 22:39:00+00:00,244.0364,9.63,12.65,47.84626,-54.09684
2021-11-10 22:49:00+00:00,242.6947,9.62,12.65,47.84626,-54.09684
2021-11-10 22:59:00+00:00,242.8714,9.6,12.65,47.84626,-54.09684
2021-11-10 23:09:00+00:00,246.3365,9.6,12.65,47.84626,-54.09684
2021-11-10 23:19:00+00:00,242.8381,9.6,12.65,47.84626,-54.09684
2021-11-10 23:29:00+00:00,236.8748,9.6,12.65,47.84626,-54.09684
2021-11-10 23:39:00+00:00,238.9681,9.6,12.65,47.84626,-54.09684
2021-11-10 23:49:00+00:00,244.0631,9.6,12.65,47.84626,-54.09684
2021-11-10 23:59:00+00:00,239.2831,9.6,12.65,47.84626,-54.09684
